Location: Burla
(50.9568°N, 10.4983°E)
Time: 19:01:21
(UTC+00:00)

Cosmos 1959 Rocket - Pass Details

Date: 18 January 2026
Orbit: 947 x 996 km, 83.0° (Epoch: 17 February)

Event Time Altitude Azimuth Distance (km) Brightness Sun altitude
Rises 06:18:36 0° 197° (SSW) 3,631 7.6 -8.3°
Reaches altitude 10° 06:21:07 10° 200° (SSW) 2,683 6.9 -7.9°
Maximum altitude 06:27:13 66° 283° (WNW) 1,036 4.5 -7.0°
Drops below altitude 10° 06:33:19 10° 6° (N) 2,682 6.6 -6.2°
Sets 06:35:50 0° 9° (N) 3,631 7.3 -5.8°
